| time (UTC) | temp C | wind direction | speed KPH | gust KPH | rain 1hr cm | rain 24hr cm | rain mn cm | humidity % | barometer mb |
| 20260506051011 | 16 | 5 | 8.0 | 24.1 | 0.00 | 0.00 | 0.00 | 76 | 1010.0 |
| 20260506050512 | 16 | 3 | 3.2 | 16.1 | 0.00 | 0.00 | 0.00 | 76 | 1009.9 |
| 20260506045011 | 16 | 350 | 11.3 | 20.9 | 0.00 | 0.00 | 0.00 | 76 | 1009.9 |
| 20260506044538 | 16 | 1 | 6.4 | 20.9 | 0.00 | 0.00 | 0.00 | 76 | 1010.0 |
| 20260506044010 | 16 | 16 | 6.4 | 20.9 | 0.00 | 0.00 | 0.00 | 77 | 1010.0 |
| 20260506043513 | 16 | 332 | 8.0 | 25.7 | 0.00 | 0.00 | 0.00 | 76 | 1009.9 |
| 20260506043030 | 16 | 342 | 11.3 | 27.4 | 0.00 | 0.00 | 0.00 | 76 | 1009.9 |
| 20260506042514 | 17 | 2 | 9.7 | 27.4 | 0.00 | 0.00 | 0.00 | 76 | 1009.9 |
| 20260506042010 | 17 | 20 | 9.7 | 25.7 | 0.00 | 0.00 | 0.00 | 76 | 1009.8 |
| 20260506041541 | 17 | 23 | 6.4 | 20.9 | 0.00 | 0.00 | 0.00 | 76 | 1009.7 |
| 20260506041012 | 17 | 359 | 6.4 | 19.3 | 0.00 | 0.00 | 0.00 | 76 | 1009.8 |
| 20260506040510 | 17 | 39 | 8.0 | 19.3 | 0.00 | 0.00 | 0.00 | 76 | 1009.4 |
| 20260506040033 | 17 | 3 | 6.4 | 19.3 | 0.00 | 0.00 | 0.00 | 76 | 1009.2 |
| 20260506035511 | 17 | 336 | 6.4 | 19.3 | 0.00 | 0.00 | 0.00 | 75 | 1009.3 |
| 20260506035010 | 17 | 32 | 4.8 | 17.7 | 0.00 | 0.00 | 0.00 | 75 | 1009.2 |
| 20260506034531 | 17 | 25 | 4.8 | 20.9 | 0.00 | 0.00 | 0.00 | 75 | 1009.2 |
| 20260506034010 | 17 | 6 | 6.4 | 20.9 | 0.00 | 0.00 | 0.00 | 75 | 1009.3 |
| 20260506033509 | 18 | 13 | 8.0 | 19.3 | 0.00 | 0.00 | 0.00 | 75 | 1009.0 |
| 20260506033030 | 18 | 342 | 6.4 | 17.7 | 0.00 | 0.00 | 0.00 | 75 | 1009.1 |
| 20260506032511 | 18 | 12 | 3.2 | 20.9 | 0.00 | 0.00 | 0.00 | 75 | 1009.0 |
| 20260506032010 | 18 | 36 | 9.7 | 20.9 | 0.00 | 0.00 | 0.00 | 74 | 1009.1 |
| 20260506031530 | 18 | 355 | 4.8 | 27.4 | 0.00 | 0.00 | 0.00 | 74 | 1008.9 |
| 20260506031011 | 19 | 355 | 12.9 | 27.4 | 0.00 | 0.00 | 0.00 | 74 | 1009.0 |
| 20260506030515 | 19 | 350 | 1.6 | 20.9 | 0.00 | 0.00 | 0.00 | 73 | 1008.9 |
| 20260506030030 | 20 | 24 | 1.6 | 20.9 | 0.00 | 0.00 | 0.00 | 73 | 1008.7 |
| 20260506025511 | 20 | 342 | 6.4 | 25.7 | 0.00 | 0.00 | 0.00 | 73 | 1008.7 |
| 20260506025009 | 20 | 26 | 6.4 | 25.7 | 0.00 | 0.00 | 0.00 | 73 | 1008.6 |
| 20260506024528 | 20 | 342 | 6.4 | 22.5 | 0.00 | 0.00 | 0.00 | 73 | 1008.4 |
| 20260506024014 | 20 | 6 | 12.9 | 22.5 | 0.00 | 0.00 | 0.00 | 72 | 1008.3 |
| 20260506023510 | 20 | 340 | 6.4 | 20.9 | 0.00 | 0.00 | 0.00 | 72 | 1008.2 |
| 20260506023030 | 20 | 350 | 6.4 | 20.9 | 0.00 | 0.00 | 0.00 | 72 | 1007.9 |
| 20260506022510 | 20 | 9 | 6.4 | 20.9 | 0.00 | 0.00 | 0.00 | 72 | 1007.7 |
| 20260506022011 | 20 | 350 | 6.4 | 22.5 | 0.00 | 0.00 | 0.00 | 71 | 1007.7 |
| 20260506021528 | 21 | 20 | 11.3 | 29.0 | 0.00 | 0.00 | 0.00 | 71 | 1007.5 |
| 20260506021015 | 21 | 16 | 8.0 | 29.0 | 0.00 | 0.00 | 0.00 | 71 | 1007.5 |
| 20260506020515 | 21 | 350 | 6.4 | 17.7 | 0.00 | 0.00 | 0.00 | 71 | 1007.1 |
| 20260506020030 | 21 | 355 | 4.8 | 17.7 | 0.00 | 0.00 | 0.00 | 70 | 1007.0 |
| 20260506015512 | 22 | 25 | 1.6 | 14.5 | 0.00 | 0.00 | 0.00 | 70 | 1006.8 |
| 20260506015011 | 22 | 350 | 3.2 | 14.5 | 0.00 | 0.00 | 0.00 | 70 | 1006.9 |
| 20260506014528 | 22 | 34 | 3.2 | 14.5 | 0.00 | 0.00 | 0.00 | 69 | 1006.9 |
| 20260506014011 | 22 | 3 | 4.8 | 12.9 | 0.00 | 0.00 | 0.00 | 69 | 1006.8 |
| 20260506013511 | 22 | 0 | 3.2 | 19.3 | 0.00 | 0.00 | 0.00 | 69 | 1006.8 |
| 20260506013032 | 22 | 355 | 3.2 | 19.3 | 0.00 | 0.00 | 0.00 | 68 | 1006.6 |
| 20260506012512 | 22 | 355 | 9.7 | 19.3 | 0.00 | 0.00 | 0.00 | 67 | 1006.7 |
| 20260506012015 | 22 | 342 | 1.6 | 14.5 | 0.00 | 0.00 | 0.00 | 67 | 1006.4 |
| 20260506011539 | 22 | 32 | 1.6 | 20.9 | 0.00 | 0.00 | 0.00 | 68 | 1006.5 |
| 20260506011017 | 22 | 323 | 4.8 | 20.9 | 0.00 | 0.00 | 0.00 | 68 | 1006.5 |
| 20260506010511 | 22 | 355 | 8.0 | 20.9 | 0.00 | 0.00 | 0.00 | 67 | 1006.3 |
| 20260506010029 | 22 | 1 | 6.4 | 17.7 | 0.00 | 0.00 | 0.00 | 67 | 1006.3 |
| 20260506005513 | 22 | 9 | 9.7 | 17.7 | 0.00 | 0.00 | 0.00 | 67 | 1006.4 |
| 20260506005010 | 22 | 350 | 4.8 | 20.9 | 0.00 | 0.00 | 0.00 | 66 | 1006.0 |
| 20260506004539 | 22 | 24 | 4.8 | 20.9 | 0.00 | 0.00 | 0.00 | 66 | 1005.8 |
| 20260506004017 | 22 | 350 | 9.7 | 20.9 | 0.00 | 0.00 | 0.00 | 66 | 1006.2 |
| 20260506003511 | 23 | 7 | 4.8 | 16.1 | 0.00 | 0.00 | 0.00 | 66 | 1006.1 |
| 20260506003031 | 23 | 345 | 3.2 | 14.5 | 0.00 | 0.00 | 0.00 | 66 | 1006.0 |
| 20260506002514 | 23 | 26 | 1.6 | 14.5 | 0.00 | 0.00 | 0.00 | 66 | 1006.0 |
| 20260506002011 | 23 | 16 | 4.8 | 24.1 | 0.00 | 0.00 | 0.00 | 66 | 1005.8 |
| 20260506001532 | 24 | 350 | 8.0 | 30.6 | 0.00 | 0.00 | 0.00 | 66 | 1005.6 |
| 20260506001011 | 24 | 341 | 11.3 | 30.6 | 0.00 | 0.00 | 0.00 | 65 | 1005.6 |
| 20260506000512 | 24 | 18 | 14.5 | 30.6 | 0.00 | 0.00 | 0.00 | 64 | 1005.5 |
| 20260506000027 | 25 | 337 | 16.1 | 29.0 | 0.00 | 0.00 | 0.00 | 63 | 1005.4 |
| 20260505235510 | 25 | 340 | 12.9 | 25.7 | 0.00 | 0.00 | 0.00 | 63 | 1005.2 |
| 20260505235010 | 25 | 326 | 11.3 | 29.0 | 0.00 | 0.00 | 0.00 | 63 | 1005.3 |
| 20260505234530 | 25 | 323 | 12.9 | 29.0 | 0.00 | 0.00 | 0.00 | 62 | 1005.1 |
| 20260505234014 | 25 | 355 | 9.7 | 35.4 | 0.00 | 0.00 | 0.00 | 62 | 1005.2 |
| 20260505233511 | 25 | 355 | 17.7 | 35.4 | 0.00 | 0.00 | 0.00 | 61 | 1005.2 |
| 20260505233033 | 26 | 342 | 16.1 | 32.2 | 0.00 | 0.00 | 0.00 | 61 | 1005.2 |
| 20260505232515 | 26 | 288 | 16.1 | 30.6 | 0.00 | 0.00 | 0.00 | 60 | 1005.3 |
| 20260505232011 | 27 | 342 | 9.7 | 29.0 | 0.00 | 0.00 | 0.00 | 59 | 1005.0 |
| 20260505231538 | 28 | 350 | 12.9 | 27.4 | 0.00 | 0.00 | 0.00 | 57 | 1004.8 |
| 20260505231011 | 28 | 339 | 14.5 | 27.4 | 0.00 | 0.00 | 0.00 | 56 | 1004.9 |
| 20260505230513 | 28 | 355 | 11.3 | 25.7 | 0.00 | 0.00 | 0.00 | 54 | 1004.6 |
| 20260505230033 | 28 | 310 | 14.5 | 25.7 | 0.00 | 0.00 | 0.00 | 52 | 1004.6 |
| 20260505225512 | 28 | 355 | 14.5 | 25.7 | 0.00 | 0.00 | 0.00 | 51 | 1004.3 |
| 20260505225013 | 29 | 355 | 9.7 | 25.7 | 0.00 | 0.00 | 0.00 | 50 | 1004.2 |
| 20260505224528 | 29 | 2 | 11.3 | 25.7 | 0.00 | 0.00 | 0.00 | 50 | 1004.4 |
| 20260505224010 | 29 | 325 | 9.7 | 27.4 | 0.00 | 0.00 | 0.00 | 50 | 1004.3 |
| 20260505223510 | 29 | 342 | 16.1 | 27.4 | 0.00 | 0.00 | 0.00 | 49 | 1004.3 |
| 20260505223033 | 30 | 322 | 16.1 | 27.4 | 0.00 | 0.00 | 0.00 | 49 | 1004.0 |
| 20260505222517 | 31 | 317 | 3.2 | 12.9 | 0.00 | 0.00 | 0.00 | 51 | 1003.9 |
| 20260505222016 | 31 | 263 | 4.8 | 12.9 | 0.00 | 0.00 | 0.00 | 52 | 1003.7 |
| 20260505221530 | 31 | 0 | 0.0 | 9.7 | 0.00 | 0.00 | 0.00 | 54 | 1003.7 |
| 20260505221013 | 31 | 303 | 3.2 | 14.5 | 0.00 | 0.00 | 0.00 | 53 | 1003.6 |
| 20260505220510 | 31 | 0 | 4.8 | 14.5 | 0.00 | 0.00 | 0.00 | 51 | 1003.6 |
| 20260505220046 | 31 | 309 | 4.8 | 14.5 | 0.00 | 0.00 | 0.00 | 52 | 1003.9 |
| 20260505215514 | 31 | 299 | 4.8 | 14.5 | 0.00 | 0.00 | 0.00 | 52 | 1003.9 |
| 20260505215009 | 31 | 269 | 3.2 | 12.9 | 0.00 | 0.00 | 0.00 | 52 | 1003.9 |
| 20260505214532 | 31 | 313 | 3.2 | 17.7 | 0.00 | 0.00 | 0.00 | 52 | 1004.0 |
| 20260505214011 | 32 | 263 | 4.8 | 17.7 | 0.00 | 0.00 | 0.00 | 52 | 1003.9 |
| 20260505213512 | 32 | 254 | 8.0 | 17.7 | 0.00 | 0.00 | 0.00 | 52 | 1003.9 |
| 20260505213032 | 31 | 280 | 3.2 | 19.3 | 0.00 | 0.00 | 0.00 | 54 | 1004.0 |
| 20260505212510 | 31 | 222 | 8.0 | 19.3 | 0.00 | 0.00 | 0.00 | 52 | 1004.0 |
| 20260505212017 | 31 | 194 | 9.7 | 20.9 | 0.00 | 0.00 | 0.00 | 53 | 1004.0 |
| 20260505211537 | 31 | 266 | 11.3 | 20.9 | 0.00 | 0.00 | 0.00 | 53 | 1004.0 |
| 20260505211010 | 31 | 242 | 6.4 | 16.1 | 0.00 | 0.00 | 0.00 | 54 | 1004.3 |
| 20260505210511 | 32 | 220 | 6.4 | 17.7 | 0.00 | 0.00 | 0.00 | 54 | 1004.5 |
| 20260505210028 | 32 | 234 | 3.2 | 25.7 | 0.00 | 0.00 | 0.00 | 53 | 1004.3 |
| 20260505205516 | 32 | 165 | 11.3 | 25.7 | 0.00 | 0.00 | 0.00 | 54 | 1004.2 |
| 20260505205012 | 32 | 259 | 4.8 | 24.1 | 0.00 | 0.00 | 0.00 | 56 | 1004.4 |
| 20260505204529 | 31 | 234 | 8.0 | 25.7 | 0.00 | 0.00 | 0.00 | 55 | 1004.6 |
| 20260505204010 | 31 | 242 | 12.9 | 25.7 | 0.00 | 0.00 | 0.00 | 55 | 1004.6 |
| 20260505203511 | 31 | 242 | 11.3 | 24.1 | 0.00 | 0.00 | 0.00 | 56 | 1004.5 |
| 20260505203028 | 31 | 227 | 4.8 | 24.1 | 0.00 | 0.00 | 0.00 | 57 | 1004.8 |
| 20260505202511 | 31 | 278 | 11.3 | 24.1 | 0.00 | 0.00 | 0.00 | 55 | 1004.9 |
| 20260505202010 | 31 | 272 | 9.7 | 20.9 | 0.00 | 0.00 | 0.00 | 55 | 1004.8 |
| 20260505201527 | 32 | 286 | 6.4 | 27.4 | 0.00 | 0.00 | 0.00 | 55 | 1004.9 |
| 20260505201012 | 31 | 256 | 11.3 | 27.4 | 0.00 | 0.00 | 0.00 | 57 | 1004.9 |
| 20260505200510 | 31 | 228 | 16.1 | 27.4 | 0.00 | 0.00 | 0.00 | 56 | 1004.9 |
| 20260505200030 | 31 | 267 | 6.4 | 25.7 | 0.00 | 0.00 | 0.00 | 57 | 1004.7 |
| 20260505195512 | 31 | 230 | 12.9 | 25.7 | 0.00 | 0.00 | 0.00 | 58 | 1004.9 |
| 20260505195011 | 31 | 262 | 9.7 | 24.1 | 0.00 | 0.00 | 0.00 | 58 | 1005.0 |
| 20260505194528 | 31 | 319 | 4.8 | 22.5 | 0.00 | 0.00 | 0.00 | 57 | 1004.9 |
| 20260505194018 | 31 | 345 | 4.8 | 22.5 | 0.00 | 0.00 | 0.00 | 59 | 1004.9 |
| 20260505193510 | 30 | 249 | 9.7 | 27.4 | 0.00 | 0.00 | 0.00 | 58 | 1005.0 |
| 20260505193034 | 30 | 253 | 12.9 | 27.4 | 0.00 | 0.00 | 0.00 | 58 | 1005.1 |
| 20260505192510 | 30 | 229 | 9.7 | 27.4 | 0.00 | 0.00 | 0.00 | 59 | 1005.0 |
| 20260505192014 | 30 | 309 | 11.3 | 27.4 | 0.00 | 0.00 | 0.00 | 60 | 1005.1 |
| 20260505191530 | 30 | 246 | 14.5 | 25.7 | 0.00 | 0.00 | 0.00 | 59 | 1005.2 |
| 20260505191013 | 30 | 257 | 11.3 | 27.4 | 0.00 | 0.00 | 0.00 | 61 | 1004.9 |
| 20260505190517 | 29 | 205 | 11.3 | 27.4 | 0.00 | 0.00 | 0.00 | 61 | 1004.9 |
| 20260505190030 | 29 | 229 | 12.9 | 27.4 | 0.00 | 0.00 | 0.00 | 61 | 1005.0 |
| 20260505185515 | 30 | 211 | 9.7 | 25.7 | 0.00 | 0.00 | 0.00 | 61 | 1005.2 |
| 20260505185012 | 29 | 230 | 9.7 | 27.4 | 0.00 | 0.00 | 0.00 | 62 | 1005.0 |
| 20260505184531 | 28 | 289 | 11.3 | 27.4 | 0.00 | 0.00 | 0.00 | 61 | 1005.3 |
| 20260505184013 | 28 | 228 | 16.1 | 27.4 | 0.00 | 0.00 | 0.00 | 61 | 1005.2 |
| 20260505183511 | 28 | 243 | 12.9 | 33.8 | 0.00 | 0.00 | 0.00 | 62 | 1005.4 |
| 20260505183045 | 28 | 238 | 12.9 | 33.8 | 0.00 | 0.00 | 0.00 | 62 | 1005.3 |
| 20260505182511 | 28 | 236 | 16.1 | 33.8 | 0.00 | 0.00 | 0.00 | 62 | 1005.2 |
| 20260505182014 | 28 | 244 | 9.7 | 29.0 | 0.00 | 0.00 | 0.00 | 62 | 1005.3 |
| 20260505181530 | 28 | 222 | 11.3 | 29.0 | 0.00 | 0.00 | 0.00 | 62 | 1005.3 |
| 20260505181018 | 28 | 237 | 12.9 | 29.0 | 0.00 | 0.00 | 0.00 | 62 | 1005.3 |
| 20260505180511 | 28 | 219 | 12.9 | 24.1 | 0.00 | 0.00 | 0.00 | 63 | 1005.3 |
| 20260505180030 | 28 | 228 | 11.3 | 29.0 | 0.00 | 0.00 | 0.00 | 64 | 1005.3 |
| 20260505175510 | 28 | 277 | 14.5 | 29.0 | 0.00 | 0.00 | 0.00 | 63 | 1005.4 |
| 20260505175013 | 28 | 246 | 8.0 | 32.2 | 0.00 | 0.00 | 0.00 | 65 | 1005.3 |
| 20260505174530 | 28 | 227 | 14.5 | 32.2 | 0.00 | 0.00 | 0.00 | 65 | 1005.1 |
| 20260505174014 | 28 | 241 | 17.7 | 32.2 | 0.00 | 0.00 | 0.00 | 65 | 1005.2 |
| 20260505173513 | 28 | 182 | 11.3 | 29.0 | 0.00 | 0.00 | 0.00 | 66 | 1005.5 |
| 20260505173028 | 27 | 242 | 16.1 | 29.0 | 0.00 | 0.00 | 0.00 | 66 | 1005.5 |
| 20260505172516 | 27 | 217 | 14.5 | 22.5 | 0.00 | 0.00 | 0.00 | 67 | 1005.4 |
| 20260505172014 | 27 | 221 | 9.7 | 27.4 | 0.00 | 0.00 | 0.00 | 68 | 1005.5 |
| 20260505171528 | 27 | 236 | 12.9 | 33.8 | 0.00 | 0.00 | 0.00 | 68 | 1005.3 |
| 20260505171014 | 27 | 225 | 16.1 | 33.8 | 0.00 | 0.00 | 0.00 | 68 | 1005.5 |
| 20260505170512 | 27 | 276 | 14.5 | 30.6 | 0.00 | 0.00 | 0.00 | 68 | 1005.5 |
| 20260505170031 | 26 | 221 | 14.5 | 30.6 | 0.00 | 0.00 | 0.00 | 69 | 1005.4 |
| 20260505165513 | 26 | 194 | 16.1 | 30.6 | 0.00 | 0.00 | 0.00 | 69 | 1005.6 |
| 20260505165014 | 26 | 224 | 12.9 | 33.8 | 0.00 | 0.00 | 0.00 | 69 | 1005.4 |
| 20260505164545 | 26 | 194 | 14.5 | 33.8 | 0.00 | 0.00 | 0.00 | 70 | 1005.5 |
| 20260505164011 | 26 | 203 | 14.5 | 29.0 | 0.00 | 0.00 | 0.00 | 70 | 1005.4 |
| 20260505163510 | 26 | 247 | 11.3 | 32.2 | 0.00 | 0.00 | 0.00 | 71 | 1005.3 |
| 20260505163028 | 26 | 244 | 17.7 | 32.2 | 0.00 | 0.00 | 0.00 | 70 | 1005.3 |
| 20260505162511 | 26 | 215 | 12.9 | 30.6 | 0.00 | 0.00 | 0.00 | 71 | 1005.2 |
| 20260505162013 | 26 | 255 | 12.9 | 30.6 | 0.00 | 0.00 | 0.00 | 72 | 1005.2 |
| 20260505161535 | 25 | 154 | 16.1 | 30.6 | 0.00 | 0.00 | 0.00 | 72 | 1005.3 |
| 20260505161010 | 26 | 222 | 14.5 | 30.6 | 0.00 | 0.00 | 0.00 | 71 | 1005.3 |
| 20260505160511 | 25 | 249 | 12.9 | 30.6 | 0.00 | 0.00 | 0.00 | 73 | 1005.3 |
| 20260505153029 | 24 | 190 | 16.1 | 35.4 | 0.00 | 0.00 | 0.00 | 74 | 1005.1 |
| 20260505152512 | 24 | 206 | 17.7 | 33.8 | 0.00 | 0.00 | 0.00 | 75 | 1005.0 |
| 20260505152010 | 24 | 249 | 16.1 | 33.8 | 0.00 | 0.00 | 0.00 | 75 | 1005.3 |
| 20260505151527 | 24 | 249 | 17.7 | 32.2 | 0.00 | 0.00 | 0.00 | 75 | 1005.2 |
| 20260505151010 | 24 | 233 | 19.3 | 32.2 | 0.00 | 0.00 | 0.00 | 75 | 1005.2 |
| 20260505150513 | 24 | 232 | 11.3 | 30.6 | 0.00 | 0.00 | 0.00 | 76 | 1005.4 |
| 20260505140511 | 22 | 185 | 12.9 | 32.2 | 0.00 | 0.00 | 0.00 | 81 | 1005.2 |
| 20260505125013 | 21 | 179 | 16.1 | 30.6 | 0.00 | 0.00 | 0.00 | 82 | 1004.6 |
| 20260505124536 | 21 | 207 | 12.9 | 30.6 | 0.00 | 0.00 | 0.00 | 82 | 1004.5 |
| 20260505124013 | 21 | 211 | 11.3 | 30.6 | 0.00 | 0.00 | 0.00 | 82 | 1004.7 |
| 20260505123512 | 21 | 193 | 14.5 | 29.0 | 0.00 | 0.00 | 0.00 | 82 | 1004.6 |
| 20260505123032 | 21 | 193 | 11.3 | 27.4 | 0.00 | 0.00 | 0.00 | 83 | 1004.7 |
| 20260505122512 | 21 | 215 | 16.1 | 29.0 | 0.00 | 0.00 | 0.00 | 82 | 1004.5 |
| 20260505122015 | 21 | 132 | 9.7 | 29.0 | 0.00 | 0.00 | 0.00 | 82 | 1004.3 |
| 20260505121533 | 21 | 172 | 12.9 | 33.8 | 0.00 | 0.00 | 0.00 | 82 | 1004.3 |
| 20260505121012 | 21 | 229 | 11.3 | 33.8 | 0.00 | 0.00 | 0.00 | 82 | 1004.4 |
| 20260505120511 | 21 | 234 | 19.3 | 33.8 | 0.00 | 0.00 | 0.00 | 82 | 1004.3 |
| 20260505120034 | 21 | 197 | 11.3 | 32.2 | 0.00 | 0.00 | 0.00 | 82 | 1004.3 |
| 20260505115513 | 21 | 218 | 17.7 | 32.2 | 0.00 | 0.00 | 0.00 | 82 | 1004.2 |
| 20260505115012 | 21 | 240 | 16.1 | 37.0 | 0.00 | 0.00 | 0.00 | 82 | 1004.2 |
| 20260505114530 | 21 | 219 | 14.5 | 37.0 | 0.00 | 0.00 | 0.00 | 82 | 1004.2 |
| 20260505114011 | 21 | 202 | 14.5 | 33.8 | 0.00 | 0.00 | 0.00 | 82 | 1004.2 |
| 20260505113514 | 21 | 215 | 16.1 | 30.6 | 0.00 | 0.00 | 0.00 | 82 | 1004.2 |
| 20260505113034 | 21 | 226 | 14.5 | 29.0 | 0.00 | 0.00 | 0.00 | 82 | 1004.2 |
| 20260505112512 | 21 | 210 | 12.9 | 27.4 | 0.00 | 0.00 | 0.00 | 82 | 1004.2 |
| 20260505112013 | 21 | 211 | 12.9 | 24.1 | 0.00 | 0.00 | 0.00 | 82 | 1004.1 |
| 20260505111529 | 21 | 197 | 12.9 | 35.4 | 0.00 | 0.00 | 0.00 | 82 | 1004.1 |
| 20260505111015 | 21 | 229 | 12.9 | 35.4 | 0.00 | 0.00 | 0.00 | 81 | 1004.0 |
| 20260505110511 | 21 | 178 | 16.1 | 33.8 | 0.00 | 0.00 | 0.00 | 81 | 1004.1 |
| 20260505102010 | 21 | 234 | 12.9 | 33.8 | 0.00 | 0.00 | 0.00 | 81 | 1004.1 |
| 20260505101529 | 21 | 230 | 12.9 | 33.8 | 0.00 | 0.00 | 0.00 | 81 | 1004.1 |
| 20260505101013 | 21 | 204 | 12.9 | 25.7 | 0.00 | 0.00 | 0.00 | 81 | 1004.3 |
| 20260505100512 | 21 | 226 | 12.9 | 30.6 | 0.00 | 0.00 | 0.00 | 80 | 1004.2 |
| 20260505100029 | 21 | 201 | 12.9 | 30.6 | 0.00 | 0.00 | 0.00 | 80 | 1004.3 |
| 20260505095512 | 21 | 224 | 14.5 | 29.0 | 0.00 | 0.00 | 0.00 | 80 | 1004.2 |
| 20260505095010 | 21 | 250 | 16.1 | 38.6 | 0.00 | 0.00 | 0.00 | 80 | 1004.2 |
| 20260505094533 | 21 | 144 | 12.9 | 38.6 | 0.00 | 0.00 | 0.00 | 80 | 1004.4 |
| 20260505094011 | 21 | 234 | 16.1 | 35.4 | 0.00 | 0.00 | 0.00 | 80 | 1004.3 |
| 20260505093513 | 21 | 226 | 16.1 | 40.2 | 0.00 | 0.00 | 0.00 | 80 | 1004.3 |
| 20260505093030 | 21 | 232 | 19.3 | 40.2 | 0.00 | 0.00 | 0.00 | 80 | 1004.3 |
| 20260505092517 | 21 | 222 | 17.7 | 38.6 | 0.00 | 0.00 | 0.00 | 80 | 1004.4 |
| 20260505092011 | 21 | 205 | 12.9 | 38.6 | 0.00 | 0.00 | 0.00 | 80 | 1004.5 |
| 20260505091530 | 21 | 244 | 17.7 | 38.6 | 0.00 | 0.00 | 0.00 | 80 | 1004.4 |
| 20260505091010 | 21 | 209 | 16.1 | 32.2 | 0.00 | 0.00 | 0.00 | 80 | 1004.4 |
| 20260505090510 | 22 | 206 | 16.1 | 35.4 | 0.00 | 0.00 | 0.00 | 80 | 1004.5 |
| 20260505090027 | 22 | 231 | 17.7 | 38.6 | 0.00 | 0.00 | 0.00 | 80 | 1004.6 |
| 20260505085513 | 22 | 193 | 20.9 | 38.6 | 0.00 | 0.00 | 0.00 | 80 | 1004.5 |
| 20260505085013 | 22 | 206 | 17.7 | 35.4 | 0.00 | 0.00 | 0.00 | 80 | 1004.5 |
| 20260505084542 | 22 | 233 | 19.3 | 32.2 | 0.00 | 0.00 | 0.00 | 79 | 1004.5 |
| 20260505084011 | 22 | 230 | 16.1 | 32.2 | 0.00 | 0.00 | 0.00 | 79 | 1004.6 |
| 20260505083511 | 22 | 228 | 16.1 | 32.2 | 0.00 | 0.00 | 0.00 | 79 | 1004.4 |
| 20260505083031 | 22 | 238 | 17.7 | 30.6 | 0.00 | 0.00 | 0.00 | 79 | 1004.5 |
| 20260505082513 | 22 | 215 | 9.7 | 30.6 | 0.00 | 0.00 | 0.00 | 79 | 1004.5 |
| 20260505082011 | 22 | 219 | 16.1 | 30.6 | 0.00 | 0.00 | 0.00 | 79 | 1004.5 |
| 20260505081530 | 22 | 235 | 14.5 | 35.4 | 0.00 | 0.00 | 0.00 | 78 | 1004.5 |
| 20260505081011 | 22 | 209 | 14.5 | 35.4 | 0.00 | 0.00 | 0.00 | 78 | 1004.6 |
| 20260505080512 | 22 | 228 | 16.1 | 35.4 | 0.00 | 0.00 | 0.00 | 78 | 1004.6 |
| 20260505080028 | 22 | 170 | 14.5 | 33.8 | 0.00 | 0.00 | 0.00 | 78 | 1004.6 |
| 20260505075510 | 22 | 232 | 19.3 | 33.8 | 0.00 | 0.00 | 0.00 | 78 | 1004.7 |
| 20260505075011 | 22 | 209 | 17.7 | 35.4 | 0.00 | 0.00 | 0.00 | 77 | 1004.6 |
| 20260505074531 | 22 | 193 | 17.7 | 35.4 | 0.00 | 0.00 | 0.00 | 77 | 1004.8 |
| 20260505074010 | 22 | 207 | 17.7 | 35.4 | 0.00 | 0.00 | 0.00 | 77 | 1004.8 |
| 20260505073512 | 22 | 220 | 19.3 | 32.2 | 0.00 | 0.00 | 0.00 | 77 | 1004.9 |
| 20260505073033 | 22 | 194 | 16.1 | 32.2 | 0.00 | 0.00 | 0.00 | 76 | 1005.1 |
| 20260505072511 | 22 | 255 | 19.3 | 32.2 | 0.00 | 0.00 | 0.00 | 76 | 1005.1 |
| 20260505072017 | 22 | 223 | 14.5 | 30.6 | 0.00 | 0.00 | 0.00 | 76 | 1005.4 |
| 20260505071529 | 22 | 198 | 16.1 | 33.8 | 0.00 | 0.00 | 0.00 | 76 | 1005.4 |
| 20260505071011 | 22 | 205 | 16.1 | 37.0 | 0.00 | 0.00 | 0.00 | 76 | 1005.4 |
| 20260505070517 | 22 | 205 | 16.1 | 37.0 | 0.00 | 0.00 | 0.00 | 75 | 1005.5 |
| 20260505070040 | 22 | 197 | 14.5 | 37.0 | 0.00 | 0.00 | 0.00 | 75 | 1005.6 |
| 20260505065514 | 22 | 191 | 16.1 | 33.8 | 0.00 | 0.00 | 0.00 | 75 | 1005.7 |
| 20260505065012 | 22 | 207 | 16.1 | 27.4 | 0.00 | 0.00 | 0.00 | 75 | 1005.7 |
| 20260505064530 | 22 | 217 | 12.9 | 25.7 | 0.00 | 0.00 | 0.00 | 74 | 1005.7 |
| 20260505064015 | 22 | 350 | 14.5 | 27.4 | 0.00 | 0.00 | 0.00 | 74 | 1005.9 |
| 20260505063511 | 22 | 350 | 12.9 | 27.4 | 0.00 | 0.00 | 0.00 | 74 | 1005.9 |
| 20260505063032 | 22 | 350 | 14.5 | 27.4 | 0.00 | 0.00 | 0.00 | 74 | 1005.9 |
| 20260505062512 | 22 | 193 | 12.9 | 25.7 | 0.00 | 0.00 | 0.00 | 73 | 1005.8 |
| 20260505062011 | 22 | 188 | 11.3 | 29.0 | 0.00 | 0.00 | 0.00 | 73 | 1006.0 |
| 20260505061528 | 23 | 164 | 12.9 | 29.0 | 0.00 | 0.00 | 0.00 | 73 | 1006.0 |
| 20260505061011 | 23 | 151 | 11.3 | 30.6 | 0.00 | 0.00 | 0.00 | 72 | 1006.0 |
| 20260505060512 | 23 | 205 | 12.9 | 37.0 | 0.00 | 0.00 | 0.00 | 72 | 1005.9 |
| 20260505060036 | 23 | 193 | 14.5 | 37.0 | 0.00 | 0.00 | 0.00 | 72 | 1005.9 |